Flag for France Weather past 2 weeks in Marigot, Saint Martin, France

Now
86 °F

Scattered clouds.


Feels Like: 97 °F
Forecast: 83 / 88 °F
Wind: 10 mph from East

Location: Juliana Airport - Saint Maarten

Current Time: Aug 30, 2015 at 2:40:49 PM

Latest Report: Aug 30, 2015 at 2:00 PM


Visibility: N/A

Pressure: 30.01 "Hg

Humidity: 75%

Dew point: 77 °F

Location of MarigotLocation

Historic Weather in Marigot — Graph

°F

Marigot temperature yesterday

Maximum temperature yesterday: 88 °F (at 10:00 AM)
Minimum temperature yesterday: 82 °F (at 12:00 AM)
Average temperature yesterday: 85 °F

Past Weeks' High & Low Weather Summary

 TemperatureHumidityPressure
High90 °F (Aug 25, 3:00 PM)89% (Aug 16, 12:00 AM)30.07 "Hg (Aug 16, 12:00 AM)
Low79 °F (Aug 16, 5:00 AM)52% (Aug 16, 1:00 PM)29.80 "Hg (Aug 27, 4:00 AM)
Average84 °F74%29.97 "Hg
* Reported Aug 15 1:00 PM — Aug 30 1:00 PM, Marigot, Weather by CustomWeather, © 2015

Note: Actual official high and low records may vary slightly from our data, if they occured in-between our weather recording intervals... More about our weather records

Advertising

Marigot weather history for previous 24 hours

 ConditionsComfort  
Time TempWeatherWind HumidityBarometerVisibility
1:00 PM
Sun, Aug 30
86 °FScattered clouds.10 mph75%30.01 "HgN/A
12:00 PM88 °FScattered clouds.7 mph70%30.04 "HgN/A
11:00 AM88 °FScattered clouds.10 mph70%30.04 "HgN/A
10:00 AM86 °FPassing clouds.8 mph70%30.04 "HgN/A
9:00 AM84 °FScattered clouds.10 mph79%30.04 "HgN/A
8:00 AM82 °FScattered clouds.8 mph89%30.01 "HgN/A
7:00 AM82 °FSprinkles. Partly sunny.10 mph84%29.98 "Hg4 mi
6:00 AM82 °FSprinkles. Scattered clouds.9 mph84%29.98 "HgN/A
5:00 AM82 °FPassing clouds.14 mph84%29.98 "HgN/A
4:00 AM82 °FPassing clouds.12 mph84%29.95 "HgN/A
3:00 AM82 °FPassing clouds.9 mph84%29.95 "HgN/A
2:00 AM82 °FSprinkles. Passing clouds.12 mph84%29.98 "HgN/A
1:00 AM82 °FPassing clouds.13 mph84%29.98 "HgN/A
12:00 AM82 °FPassing clouds.14 mph84%30.01 "HgN/A
11:00 PM
Sat, Aug 29
82 °FSprinkles. Passing clouds.10 mph84%30.01 "HgN/A
10:00 PM82 °FPassing clouds.14 mph84%30.01 "HgN/A
9:00 PM82 °FPassing clouds.13 mph84%30.01 "HgN/A
8:00 PM84 °FThunderstorms. Passing clouds.17 mph74%30.01 "HgN/A
7:00 PM84 °FSprinkles. Passing clouds.13 mph79%29.98 "HgN/A
6:00 PM84 °FScattered clouds.15 mph74%29.98 "HgN/A
5:00 PM86 °FScattered clouds.17 mph70%29.98 "HgN/A
4:00 PM86 °FScattered clouds.12 mph70%29.98 "HgN/A
3:00 PM88 °FScattered clouds.17 mph66%29.98 "HgN/A
2:00 PM88 °FScattered clouds.13 mph66%29.98 "HgN/A
Weather by CustomWeather, © 2015

See weather overviewHow to use our weather pages